Time,TemperatureF,DewpointF,PressureIn,WindDirection,WindDirectionDegrees,WindSpeedMPH,WindSpeedGustMPH,Humidity,HourlyPrecipIn,Conditions,Clouds,dailyrainin,SoftwareType,DateUTC
2013-08-06 00:02:00,65.0,64.0,-100.00,WNW,295,0.0,0.0,97,0.00,,,-99.99,,2013-08-06 05:02:00,
2013-08-06 00:10:00,65.0,63.0,-100.00,West,280,0.0,0.0,96,0.00,,,-99.99,,2013-08-06 05:10:00,
2013-08-06 00:32:00,65.0,63.0,-100.00,West,280,0.0,0.0,96,0.00,,,-99.99,,2013-08-06 05:32:00,
2013-08-06 00:43:00,65.0,63.0,-100.00,West,280,0.0,0.0,96,0.00,,,-99.99,,2013-08-06 05:43:00,
2013-08-06 00:53:00,65.0,63.0,-100.00,West,280,0.0,0.0,96,0.00,,,-99.99,,2013-08-06 05:53:00,
2013-08-06 01:02:00,65.0,63.0,-100.00,West,280,0.0,0.0,96,0.00,,,-99.99,,2013-08-06 06:02:00,
2013-08-06 01:32:00,65.0,64.0,-100.00,WNW,295,0.0,0.0,99,0.00,,,-99.99,,2013-08-06 06:32:00,
2013-08-06 01:43:00,65.0,64.0,-100.00,WNW,295,0.0,0.0,99,0.00,,,-99.99,,2013-08-06 06:43:00,
2013-08-06 01:52:00,65.0,64.0,-100.00,WNW,295,0.0,0.0,99,0.00,,,-99.99,,2013-08-06 06:52:00,
2013-08-06 02:01:00,65.0,64.0,-100.00,WNW,295,0.0,0.0,99,0.00,,,-99.99,,2013-08-06 07:01:00,
2013-08-06 02:32:00,65.0,64.0,-100.00,West,280,0.0,0.0,99,0.00,,,-99.99,,2013-08-06 07:32:00,
2013-08-06 02:44:00,65.0,64.0,-100.00,West,280,0.0,0.0,99,0.00,,,-99.99,,2013-08-06 07:44:00,
2013-08-06 02:53:00,65.0,64.0,-100.00,West,280,0.0,0.0,99,0.00,,,-99.99,,2013-08-06 07:53:00,
2013-08-06 03:02:00,65.0,64.0,-100.00,West,280,0.0,0.0,99,0.00,,,-99.99,,2013-08-06 08:02:00,
2013-08-06 03:33:00,64.0,64.0,-100.00,NW,310,0.0,0.0,99,0.00,,,-99.99,,2013-08-06 08:33:00,
2013-08-06 03:43:00,64.0,64.0,-100.00,NW,310,0.0,0.0,99,0.00,,,-99.99,,2013-08-06 08:43:00,
2013-08-06 03:52:00,64.0,64.0,-100.00,NW,310,0.0,0.0,99,0.00,,,-99.99,,2013-08-06 08:52:00,
2013-08-06 04:01:00,64.0,64.0,-100.00,NW,310,0.0,0.0,99,0.00,,,-99.99,,2013-08-06 09:01:00,
2013-08-06 04:33:00,64.0,64.0,-100.00,WNW,290,0.0,0.0,99,0.00,,,-99.99,,2013-08-06 09:33:00,
2013-08-06 04:43:00,64.0,64.0,-100.00,WNW,290,0.0,0.0,99,0.00,,,-99.99,,2013-08-06 09:43:00,
2013-08-06 04:52:00,64.0,64.0,-100.00,WNW,290,0.0,0.0,99,0.00,,,-99.99,,2013-08-06 09:52:00,
2013-08-06 05:01:00,64.0,64.0,-100.00,WNW,290,0.0,0.0,99,0.00,,,-99.99,,2013-08-06 10:01:00,
2013-08-06 05:32:00,64.0,64.0,-100.00,NW,325,0.0,0.0,99,0.00,,,-99.99,,2013-08-06 10:32:00,
2013-08-06 05:43:00,64.0,64.0,-100.00,NW,325,0.0,0.0,99,0.00,,,-99.99,,2013-08-06 10:43:00,
2013-08-06 05:53:00,64.0,64.0,-100.00,NW,325,0.0,0.0,99,0.00,,,-99.99,,2013-08-06 10:53:00,
2013-08-06 06:02:00,64.0,64.0,-100.00,NW,325,0.0,0.0,99,0.00,,,-99.99,,2013-08-06 11:02:00,
2013-08-06 06:11:00,64.0,64.0,-100.00,WNW,300,0.0,0.0,99,0.00,,,-99.99,,2013-08-06 11:11:00,
2013-08-06 06:32:00,64.0,64.0,-100.00,WNW,300,0.0,0.0,99,0.00,,,-99.99,,2013-08-06 11:32:00,
2013-08-06 06:43:00,64.0,64.0,-100.00,WNW,300,0.0,0.0,99,0.00,,,-99.99,,2013-08-06 11:43:00,
2013-08-06 06:53:00,64.0,64.0,-100.00,WNW,300,0.0,0.0,99,0.00,,,-99.99,,2013-08-06 11:53:00,
2013-08-06 07:02:00,64.0,64.0,-100.00,WNW,300,0.0,0.0,99,0.00,,,-99.99,,2013-08-06 12:02:00,
2013-08-06 07:32:00,65.0,65.0,-100.00,NNW,335,0.0,0.0,99,0.00,,,-99.99,,2013-08-06 12:32:00,
2013-08-06 07:43:00,65.0,65.0,-100.00,NNW,335,0.0,0.0,99,0.00,,,-99.99,,2013-08-06 12:43:00,
2013-08-06 07:52:00,65.0,65.0,-100.00,NNW,335,0.0,0.0,99,0.00,,,-99.99,,2013-08-06 12:52:00,
2013-08-06 08:02:00,65.0,65.0,-100.00,NNW,335,0.0,0.0,99,0.00,,,-99.99,,2013-08-06 13:02:00,
2013-08-06 08:10:00,66.0,65.0,-100.00,WSW,255,0.0,0.0,99,0.00,,,-99.99,,2013-08-06 13:10:00,
2013-08-06 08:32:00,66.0,65.0,-100.00,WSW,255,0.0,0.0,99,0.00,,,-99.99,,2013-08-06 13:32:00,
2013-08-06 08:42:00,66.0,65.0,-100.00,WSW,255,0.0,0.0,99,0.00,,,-99.99,,2013-08-06 13:42:00,
2013-08-06 08:53:00,66.0,65.0,-100.00,WSW,255,0.0,0.0,99,0.00,,,-99.99,,2013-08-06 13:53:00,
2013-08-06 09:01:00,66.0,65.0,-100.00,WSW,255,0.0,0.0,99,0.00,,,-99.99,,2013-08-06 14:01:00,
2013-08-06 09:10:00,71.0,69.0,-100.00,West,265,0.0,0.0,94,0.00,,,-99.99,,2013-08-06 14:10:00,
2013-08-06 09:32:00,71.0,69.0,-100.00,West,265,0.0,0.0,94,0.00,,,-99.99,,2013-08-06 14:32:00,
2013-08-06 09:42:00,71.0,69.0,-100.00,West,265,0.0,0.0,94,0.00,,,-99.99,,2013-08-06 14:42:00,
2013-08-06 09:53:00,71.0,69.0,-100.00,West,265,0.0,0.0,94,0.00,,,-99.99,,2013-08-06 14:53:00,
2013-08-06 10:02:00,71.0,69.0,-100.00,West,265,0.0,0.0,94,0.00,,,-99.99,,2013-08-06 15:02:00,
2013-08-06 10:10:00,75.0,62.0,-100.00,West,260,0.0,0.0,64,0.00,,,-99.99,,2013-08-06 15:10:00,
2013-08-06 10:33:00,75.0,62.0,-100.00,West,260,0.0,0.0,64,0.00,,,-99.99,,2013-08-06 15:33:00,
2013-08-06 10:44:00,75.0,62.0,-100.00,West,260,0.0,0.0,64,0.00,,,-99.99,,2013-08-06 15:44:00,
2013-08-06 10:52:00,75.0,62.0,-100.00,West,260,0.0,0.0,64,0.00,,,-99.99,,2013-08-06 15:52:00,
2013-08-06 11:02:00,75.0,62.0,-100.00,West,260,0.0,0.0,64,0.00,,,-99.99,,2013-08-06 16:02:00,
2013-08-06 11:10:00,77.0,61.0,-100.00,NNE,25,0.0,0.0,59,0.00,,,-99.99,,2013-08-06 16:10:00,
2013-08-06 11:32:00,77.0,61.0,-100.00,NNE,25,0.0,0.0,59,0.00,,,-99.99,,2013-08-06 16:32:00,
2013-08-06 11:43:00,77.0,61.0,-100.00,NNE,25,0.0,0.0,59,0.00,,,-99.99,,2013-08-06 16:43:00,
2013-08-06 11:52:00,77.0,61.0,-100.00,NNE,25,0.0,0.0,59,0.00,,,-99.99,,2013-08-06 16:52:00,
2013-08-06 12:02:00,77.0,61.0,-100.00,NNE,25,0.0,0.0,59,0.00,,,-99.99,,2013-08-06 17:02:00,
2013-08-06 12:10:00,78.0,62.0,-100.00,West,275,0.0,0.0,58,0.00,,,-99.99,,2013-08-06 17:10:00,
2013-08-06 12:32:00,78.0,62.0,-100.00,West,275,0.0,0.0,58,0.00,,,-99.99,,2013-08-06 17:32:00,
2013-08-06 12:44:00,78.0,62.0,-100.00,West,275,0.0,0.0,58,0.00,,,-99.99,,2013-08-06 17:44:00,
2013-08-06 12:52:00,78.0,62.0,-100.00,West,275,0.0,0.0,58,0.00,,,-99.99,,2013-08-06 17:52:00,
2013-08-06 13:01:00,78.0,62.0,-100.00,West,275,0.0,0.0,58,0.00,,,-99.99,,2013-08-06 18:01:00,
2013-08-06 13:11:00,81.0,62.0,-100.00,SW,235,0.0,0.0,52,0.00,,,-99.99,,2013-08-06 18:11:00,
2013-08-06 13:32:00,81.0,62.0,-100.00,SW,235,0.0,0.0,52,0.00,,,-99.99,,2013-08-06 18:32:00,
2013-08-06 13:44:00,81.0,62.0,-100.00,SW,235,0.0,0.0,52,0.00,,,-99.99,,2013-08-06 18:44:00,
2013-08-06 13:52:00,81.0,62.0,-100.00,SW,235,0.0,0.0,52,0.00,,,-99.99,,2013-08-06 18:52:00,
2013-08-06 14:01:00,81.0,62.0,-100.00,SW,235,0.0,0.0,52,0.00,,,-99.99,,2013-08-06 19:01:00,
2013-08-06 14:10:00,82.0,60.0,-100.00,WSW,250,0.0,0.0,47,0.00,,,-99.99,,2013-08-06 19:10:00,
2013-08-06 14:32:00,82.0,60.0,-100.00,WSW,250,0.0,0.0,47,0.00,,,-99.99,,2013-08-06 19:32:00,
2013-08-06 14:42:00,82.0,60.0,-100.00,WSW,250,0.0,0.0,47,0.00,,,-99.99,,2013-08-06 19:42:00,
2013-08-06 14:52:00,82.0,60.0,-100.00,WSW,250,0.0,0.0,47,0.00,,,-99.99,,2013-08-06 19:52:00,
2013-08-06 15:01:00,82.0,60.0,-100.00,WSW,250,0.0,0.0,47,0.00,,,-99.99,,2013-08-06 20:01:00,
2013-08-06 15:32:00,83.0,60.0,-100.00,WSW,255,0.0,0.0,45,0.00,,,-99.99,,2013-08-06 20:32:00,
2013-08-06 15:44:00,83.0,60.0,-100.00,WSW,255,0.0,0.0,45,0.00,,,-99.99,,2013-08-06 20:44:00,
2013-08-06 15:52:00,83.0,60.0,-100.00,WSW,255,0.0,0.0,45,0.00,,,-99.99,,2013-08-06 20:52:00,
2013-08-06 16:01:00,83.0,60.0,-100.00,WSW,255,0.0,0.0,45,0.00,,,-99.99,,2013-08-06 21:01:00,
2013-08-06 16:32:00,82.0,62.0,-100.00,WSW,255,0.0,0.0,50,0.00,,,-99.99,,2013-08-06 21:32:00,
2013-08-06 16:43:00,82.0,62.0,-100.00,WSW,255,0.0,0.0,50,0.00,,,-99.99,,2013-08-06 21:43:00,
2013-08-06 16:52:00,82.0,62.0,-100.00,WSW,255,0.0,0.0,50,0.00,,,-99.99,,2013-08-06 21:52:00,
2013-08-06 17:01:00,82.0,62.0,-100.00,WSW,255,0.0,0.0,50,0.00,,,-99.99,,2013-08-06 22:01:00,
2013-08-06 17:32:00,80.0,64.0,-100.00,West,275,0.0,0.0,57,0.00,,,-99.99,,2013-08-06 22:32:00,
2013-08-06 17:43:00,80.0,64.0,-100.00,West,275,0.0,0.0,57,0.00,,,-99.99,,2013-08-06 22:43:00,
2013-08-06 17:53:00,80.0,64.0,-100.00,West,275,0.0,0.0,57,0.00,,,-99.99,,2013-08-06 22:53:00,
2013-08-06 18:01:00,80.0,64.0,-100.00,West,275,0.0,0.0,57,0.00,,,-99.99,,2013-08-06 23:01:00,
2013-08-06 18:33:00,79.0,63.0,-100.00,NW,305,0.0,0.0,58,0.00,,,-99.99,,2013-08-06 23:33:00,
2013-08-06 18:43:00,79.0,63.0,-100.00,NW,305,0.0,0.0,58,0.00,,,-99.99,,2013-08-06 23:43:00,
2013-08-06 18:52:00,79.0,63.0,-100.00,NW,305,0.0,0.0,58,0.00,,,-99.99,,2013-08-06 23:52:00,
2013-08-06 19:01:00,79.0,63.0,-100.00,NW,305,0.0,0.0,58,0.00,,,-99.99,,2013-08-07 00:01:00,
2013-08-06 19:32:00,78.0,65.0,-100.00,WSW,255,0.0,0.0,66,0.00,,,-99.99,,2013-08-07 00:32:00,
2013-08-06 19:43:00,78.0,65.0,-100.00,WSW,255,0.0,0.0,66,0.00,,,-99.99,,2013-08-07 00:43:00,
2013-08-06 19:52:00,78.0,65.0,-100.00,WSW,255,0.0,0.0,66,0.00,,,-99.99,,2013-08-07 00:52:00,
2013-08-06 20:01:00,78.0,65.0,-100.00,WSW,255,0.0,0.0,66,0.00,,,-99.99,,2013-08-07 01:01:00,
2013-08-06 20:32:00,75.0,67.0,-100.00,WNW,290,0.0,0.0,75,0.00,,,-99.99,,2013-08-07 01:32:00,
2013-08-06 20:43:00,75.0,67.0,-100.00,WNW,290,0.0,0.0,75,0.00,,,-99.99,,2013-08-07 01:43:00,
2013-08-06 20:52:00,75.0,67.0,-100.00,WNW,290,0.0,0.0,75,0.00,,,-99.99,,2013-08-07 01:52:00,
2013-08-06 21:02:00,75.0,67.0,-100.00,WNW,290,0.0,0.0,75,0.00,,,-99.99,,2013-08-07 02:02:00,
2013-08-06 21:33:00,75.0,67.0,-100.00,WNW,290,0.0,0.0,77,0.00,,,-99.99,,2013-08-07 02:33:00,
2013-08-06 21:43:00,75.0,67.0,-100.00,WNW,290,0.0,0.0,77,0.00,,,-99.99,,2013-08-07 02:43:00,
2013-08-06 21:53:00,75.0,67.0,-100.00,WNW,290,0.0,0.0,77,0.00,,,-99.99,,2013-08-07 02:53:00,
2013-08-06 22:01:00,75.0,67.0,-100.00,WNW,290,0.0,0.0,77,0.00,,,-99.99,,2013-08-07 03:01:00,
2013-08-06 22:10:00,75.0,68.0,-100.00,West,270,0.0,0.0,80,0.00,,,-99.99,,2013-08-07 03:10:00,
2013-08-06 22:32:00,75.0,68.0,-100.00,West,270,0.0,0.0,80,0.00,,,-99.99,,2013-08-07 03:32:00,
2013-08-06 22:43:00,75.0,68.0,-100.00,West,270,0.0,0.0,80,0.00,,,-99.99,,2013-08-07 03:43:00,
2013-08-06 22:52:00,75.0,68.0,-100.00,West,270,0.0,0.0,80,0.00,,,-99.99,,2013-08-07 03:52:00,
2013-08-06 23:01:00,75.0,68.0,-100.00,West,270,0.0,0.0,80,0.00,,,-99.99,,2013-08-07 04:01:00,